• In Deutschland
  • Länderverzeichnis
  • Für 7 Tage
  • Wassertemperatur
  • Satellitenkarten
  • Wetterkarte
  • Widgets
  • user-avatar
    Anmelden

    Stündliche Wetter Mingachevir

    Heute, 25 Mai, Donnerstag

    Zeit Temperatur Niederschläge Wind Luftdruck Luftfeuchtigkeit
    00:00 +17°C° 0 mm 3 m/S 752 mmHg 62%
    01:00 +17°C° 0 mm 3 m/S 752 mmHg 63%
    02:00 +16°C° 0 mm 3 m/S 752 mmHg 63%
    03:00 +16°C° 0 mm 3 m/S 752 mmHg 63%
    04:00 +17°C° 0 mm 3 m/S 752 mmHg 61%
    05:00 +17°C° 0 mm 3 m/S 752 mmHg 59%
    06:00 +18°C° 0 mm 3 m/S 752 mmHg 56%
    07:00 +20°C° 0 mm 3 m/S 752 mmHg 50%
    08:00 +21°C° 0 mm 3 m/S 752 mmHg 43%
    09:00 +24°C° 0 mm 3 m/S 752 mmHg 36%
    10:00 +25°C° 0,1 mm 2 m/S 752 mmHg 34%
    11:00 +26°C° 0,1 mm 2 m/S 752 mmHg 33%
    12:00 +27°C° 0,1 mm 2 m/S 752 mmHg 32%
    13:00 +27°C° 0,1 mm 2 m/S 752 mmHg 31%
    14:00 +28°C° 0,1 mm 1 m/S 751 mmHg 31%
    15:00 +28°C° 0 mm 1 m/S 751 mmHg 32%
    16:00 +28°C° 0 mm 2 m/S 751 mmHg 35%
    17:00 +27°C° 0 mm 2 m/S 752 mmHg 38%
    18:00 +26°C° 0 mm 2 m/S 752 mmHg 41%
    19:00 +24°C° 0 mm 2 m/S 752 mmHg 45%
    20:00 +21°C° 0 mm 2 m/S 753 mmHg 50%
    21:00 +18°C° 0 mm 2 m/S 753 mmHg 55%
    22:00 +17°C° 0 mm 2 m/S 754 mmHg 61%
    23:00 +17°C° 0 mm 2 m/S 754 mmHg 67%

    Morgen, 26 Mai, Freitag

    Zeit Temperatur Niederschläge Wind Luftdruck Luftfeuchtigkeit
    00:00 +16°C° 0 mm 1 m/S 754 mmHg 74%
    01:00 +15°C° 0 mm 1 m/S 754 mmHg 78%
    02:00 +15°C° 0 mm 1 m/S 754 mmHg 82%
    03:00 +14°C° 0 mm 1 m/S 754 mmHg 86%
    04:00 +15°C° 0 mm 0 m/S 754 mmHg 82%
    05:00 +16°C° 0 mm 0 m/S 754 mmHg 79%
    06:00 +17°C° 0 mm 0 m/S 754 mmHg 75%
    07:00 +20°C° 0 mm 1 m/S 754 mmHg 67%
    08:00 +22°C° 0 mm 1 m/S 754 mmHg 59%
    09:00 +23°C° 0 mm 1 m/S 753 mmHg 52%
    10:00 +25°C° 0 mm 1 m/S 753 mmHg 48%
    11:00 +26°C° 0 mm 1 m/S 753 mmHg 44%
    12:00 +27°C° 0 mm 1 m/S 752 mmHg 41%
    13:00 +27°C° 0 mm 1 m/S 752 mmHg 40%
    14:00 +28°C° 0 mm 2 m/S 751 mmHg 40%
    15:00 +28°C° 0 mm 2 m/S 751 mmHg 39%
    16:00 +28°C° 0 mm 2 m/S 751 mmHg 42%
    17:00 +27°C° 0 mm 1 m/S 751 mmHg 45%
    18:00 +27°C° 0 mm 1 m/S 751 mmHg 48%
    19:00 +25°C° 0 mm 2 m/S 751 mmHg 53%
    20:00 +23°C° 0 mm 2 m/S 751 mmHg 58%
    21:00 +20°C° 0 mm 3 m/S 752 mmHg 63%
    22:00 +19°C° 0 mm 3 m/S 752 mmHg 68%
    23:00 +18°C° 0 mm 2 m/S 752 mmHg 73%

    übermorgen, 27 Mai, Samstag

    Zeit Temperatur Niederschläge Wind Luftdruck Luftfeuchtigkeit
    00:00 +18°C° 0 mm 2 m/S 752 mmHg 78%
    01:00 +17°C° 0,1 mm 2 m/S 752 mmHg 80%
    02:00 +18°C° 0,1 mm 1 m/S 751 mmHg 82%
    03:00 +16°C° 0,1 mm 1 m/S 751 mmHg 84%
    04:00 +18°C° 0 mm 1 m/S 751 mmHg 81%
    05:00 +19°C° 0 mm 1 m/S 751 mmHg 78%
    06:00 +20°C° 0 mm 1 m/S 751 mmHg 75%
    07:00 +21°C° 0 mm 1 m/S 751 mmHg 69%
    08:00 +23°C° 0 mm 1 m/S 751 mmHg 63%
    09:00 +25°C° 0 mm 2 m/S 751 mmHg 57%
    10:00 +26°C° 0,1 mm 2 m/S 750 mmHg 52%
    11:00 +27°C° 0,1 mm 2 m/S 750 mmHg 47%
    12:00 +28°C° 0,1 mm 2 m/S 749 mmHg 43%
    13:00 +29°C° 0,1 mm 2 m/S 749 mmHg 41%
    14:00 +30°C° 0,1 mm 1 m/S 748 mmHg 39%
    15:00 +30°C° 0,1 mm 1 m/S 748 mmHg 37%
    16:00 +30°C° 0,2 mm 1 m/S 748 mmHg 40%
    17:00 +29°C° 0,2 mm 1 m/S 748 mmHg 43%
    18:00 +29°C° 0,2 mm 1 m/S 748 mmHg 45%
    19:00 +26°C° 0,6 mm 1 m/S 748 mmHg 52%
    20:00 +24°C° 0,6 mm 1 m/S 749 mmHg 58%
    21:00 +21°C° 0,6 mm 1 m/S 749 mmHg 65%
    22:00 +21°C° 0,4 mm 1 m/S 749 mmHg 68%
    23:00 +20°C° 0,4 mm 1 m/S 750 mmHg 71%

    28 Mai, Sonntag

    Zeit Temperatur Niederschläge Wind Luftdruck Luftfeuchtigkeit
    00:00 +19°C° 0,4 mm 1 m/S 750 mmHg 74%
    01:00 +19°C° 0 mm 1 m/S 750 mmHg 75%
    02:00 +19°C° 0 mm 1 m/S 750 mmHg 76%
    03:00 +18°C° 0 mm 1 m/S 750 mmHg 77%
    04:00 +20°C° 0 mm 1 m/S 750 mmHg 72%
    05:00 +20°C° 0 mm 2 m/S 750 mmHg 68%
    06:00 +21°C° 0 mm 2 m/S 750 mmHg 63%
    07:00 +24°C° 0 mm 3 m/S 750 mmHg 54%
    08:00 +26°C° 0 mm 3 m/S 750 mmHg 45%
    09:00 +28°C° 0 mm 3 m/S 750 mmHg 37%
    10:00 +29°C° 0 mm 3 m/S 750 mmHg 35%
    11:00 +30°C° 0 mm 3 m/S 749 mmHg 33%
    12:00 +31°C° 0 mm 3 m/S 749 mmHg 31%
    13:00 +33°C° 0 mm 3 m/S 748 mmHg 31%
    14:00 +33°C° 0 mm 3 m/S 748 mmHg 30%
    15:00 +34°C° 0 mm 2 m/S 747 mmHg 29%
    16:00 +32°C° 0 mm 2 m/S 748 mmHg 33%
    17:00 +31°C° 0 mm 2 m/S 748 mmHg 37%
    18:00 +30°C° 0 mm 1 m/S 748 mmHg 40%
    19:00 +28°C° 0,3 mm 2 m/S 749 mmHg 46%
    20:00 +25°C° 0,3 mm 2 m/S 750 mmHg 52%
    21:00 +21°C° 0,3 mm 2 m/S 750 mmHg 57%
    22:00 +21°C° 0,2 mm 2 m/S 751 mmHg 60%
    23:00 +20°C° 0,2 mm 2 m/S 751 mmHg 63%

    29 Mai, Montag

    Zeit Temperatur Niederschläge Wind Luftdruck Luftfeuchtigkeit
    00:00 +19°C° 0,2 mm 2 m/S 751 mmHg 65%
    01:00 +19°C° 0 mm 2 m/S 751 mmHg 66%
    02:00 +19°C° 0 mm 3 m/S 752 mmHg 66%
    03:00 +18°C° 0 mm 3 m/S 752 mmHg 67%
    04:00 +19°C° 0 mm 3 m/S 752 mmHg 64%
    05:00 +20°C° 0 mm 3 m/S 753 mmHg 61%
    06:00 +21°C° 0 mm 3 m/S 753 mmHg 58%
    07:00 +24°C° 0 mm 3 m/S 753 mmHg 52%
    08:00 +25°C° 0 mm 3 m/S 754 mmHg 45%
    09:00 +27°C° 0 mm 3 m/S 754 mmHg 38%
    10:00 +28°C° 0 mm 3 m/S 754 mmHg 36%
    11:00 +29°C° 0 mm 2 m/S 754 mmHg 34%
    12:00 +30°C° 0 mm 2 m/S 754 mmHg 33%
    13:00 +30°C° 0 mm 4 m/S 754 mmHg 34%
    14:00 +30°C° 0 mm 5 m/S 754 mmHg 36%
    15:00 +30°C° 0 mm 7 m/S 754 mmHg 38%
    16:00 +28°C° 0 mm 7 m/S 754 mmHg 44%
    17:00 +26°C° 0 mm 8 m/S 754 mmHg 50%
    18:00 +22°C° 0 mm 9 m/S 755 mmHg 56%
    19:00 +21°C° 0 mm 8 m/S 756 mmHg 60%
    20:00 +18°C° 0 mm 7 m/S 756 mmHg 63%
    21:00 +17°C° 0 mm 7 m/S 757 mmHg 66%
    22:00 +16°C° 0 mm 6 m/S 757 mmHg 66%
    23:00 +16°C° 0 mm 5 m/S 757 mmHg 66%

    30 Mai, Dienstag

    Zeit Temperatur Niederschläge Wind Luftdruck Luftfeuchtigkeit
    00:00 +15°C° 0 mm 4 m/S 757 mmHg 66%
    01:00 +16°C° 0 mm 3 m/S 757 mmHg 67%
    02:00 +14°C° 0 mm 3 m/S 756 mmHg 68%
    03:00 +15°C° 0 mm 2 m/S 756 mmHg 68%
    04:00 +15°C° 0 mm 2 m/S 756 mmHg 67%
    05:00 +16°C° 0 mm 1 m/S 756 mmHg 65%
    06:00 +16°C° 0 mm 1 m/S 756 mmHg 63%
    07:00 +19°C° 0 mm 1 m/S 755 mmHg 60%
    08:00 +20°C° 0 mm 1 m/S 755 mmHg 57%
    09:00 +20°C° 0 mm 2 m/S 754 mmHg 54%
    10:00 +23°C° 0 mm 1 m/S 754 mmHg 51%
    11:00 +24°C° 0 mm 1 m/S 753 mmHg 47%
    12:00 +26°C° 0 mm 1 m/S 752 mmHg 44%
    13:00 +27°C° 0 mm 1 m/S 752 mmHg 42%
    14:00 +27°C° 0 mm 1 m/S 751 mmHg 40%
    15:00 +28°C° 0 mm 1 m/S 751 mmHg 38%
    16:00 +28°C° 0 mm 1 m/S 751 mmHg 40%
    17:00 +28°C° 0 mm 1 m/S 751 mmHg 42%
    18:00 +27°C° 0 mm 1 m/S 751 mmHg 44%
    19:00 +25°C° 0 mm 1 m/S 751 mmHg 50%
    20:00 +23°C° 0 mm 1 m/S 752 mmHg 57%
    21:00 +21°C° 0 mm 1 m/S 752 mmHg 63%
    22:00 +20°C° 0 mm 1 m/S 752 mmHg 65%
    23:00 +20°C° 0 mm 1 m/S 752 mmHg 67%
    Mehr zeigen